This is the latest recevied weather packets stored in our database for station/object VO2AGO. If no packets are shown the sender has not sent any weather packets the latest 10 day(s).
| Time | Temp. | Humidity | Pressure | Rain* | Wind** | Luminosity | Snow |
|---|---|---|---|---|---|---|---|
| 1777647951 | 8.33° C | - | - | - | 0 m/s | 1597 W/m² | - |
| 1777647502 | 7.22° C | - | - | - | 0 m/s | 1562 W/m² | - |
| 1777647051 | 5.56° C | - | - | - | 0 m/s | 1237 W/m² | - |
| 1777646610 | 5.56° C | - | - | - | 0 m/s | 1093 W/m² | - |
| 1777646151 | 5.56° C | - | - | - | 0 m/s | 994 W/m² | - |
| 1777645701 | 5° C | - | - | - | 0 m/s | 1268 W/m² | - |
| 1777645252 | 4.44° C | - | - | - | 0 m/s | 728 W/m² | - |
| 1777644802 | 3.89° C | - | - | - | 0 m/s | 562 W/m² | - |
| 1777644351 | 4.44° C | - | - | - | 0 m/s | 600 W/m² | - |
| 1777643451 | 4.44° C | - | - | - | 0 m/s | 756 W/m² | - |
| 1777643002 | 4.44° C | - | - | - | 0 m/s | 891 W/m² | - |
| 1777642551 | 3.89° C | - | - | - | 0 m/s | 1301 W/m² | - |
| 1777642103 | 3.33° C | - | - | - | 0 m/s | 1026 W/m² | - |
| 1777641651 | 3.33° C | - | - | - | 0 m/s | 1147 W/m² | - |
| 1777641201 | 3.33° C | - | - | - | 0 m/s | 896 W/m² | - |
| 1777638051 | 2.22° C | - | - | - | 0 m/s | 502 W/m² | - |
| 1777637600 | 2.22° C | - | - | - | 0 m/s | 573 W/m² | - |
| 1777636701 | 2.22° C | - | - | - | 0 m/s | 648 W/m² | - |
| 1777636252 | 2.22° C | - | - | - | 0 m/s | 392 W/m² | - |
| 1777634901 | 2.78° C | - | - | - | 0 m/s | 351 W/m² | - |
| 1777634002 | 2.22° C | - | - | - | 0 m/s | 311 W/m² | - |
| 1777633552 | 2.22° C | - | - | - | 0 m/s | 279 W/m² | - |
| 1777633101 | 2.22° C | - | - | - | 0 m/s | 238 W/m² | - |
| 1777632651 | 2.22° C | - | - | - | 0 m/s | 270 W/m² | - |
| 1777632201 | 2.22° C | - | - | - | 0 m/s | 348 W/m² | - |
* Rain since midnight (hover to see other rain measurements)
** Current wind speed in m/s (hover to see current wind gust speed)